www.pogodaiklimat.ru

Погода и климат >> Архив погоды >> Россия >> Крым >> Клепинино


ПОГОДА в Клепинино

  • Прогноз погоды в Клепинино
  • Монитор погоды в Клепинино
  • Климат города

АРХИВ ПОГОДЫ в Клепинино

Время (UTC), дата Ветер
(напр.,м/с)
 
Видим.   Явления Облачность Т
(С)
Тd
(С)
f
(%)
Тe
(С)
Тes
(С)
Комфортность P
(гПа)
Po
(гПа)
Тmin
(С)
Tmax
(С)
R
(мм)
R24
(мм)
S
(см)
03 13.09 штиль 0 н/о 10/0
[Ci]
+13.9 +13.0 94 +13 +13 1020.9 1016.5 +13.8 0.3
06 13.09 Ю 1 4000 м дымка 1/0
[Ci sp]
+19.6 +17.0 85 +23 +27 комфорт 1020.6 1016.3 +13.5
09 13.09 В 4 20 км 8/1 600 м
[Cu hum Ci sp]
+26.3 +13.4 45 +28 +34 жарко 1019.1 1014.9
12 13.09 В 5-10
{11}
20 км 8/1 600 м
[Cu hum Ac cast Ci]
+27.1 +11.4 38 +28 +30 жарко 1017.5 1013.3
15 13.09 В 4
{10}
20 км 9/0
[Ac cast Cc]
+24.9 +13.1 48 +27 +27 жарко 1015.9 1011.6
18 13.09 В 3 н/о 10/10 600 м
[Sc]
+20.9 +14.8 68 +24 +24 комфорт 1014.5 1010.2 +28.3
21 13.09 Ю 1 н/о 10/10 600 м
[Sc]
+19.6 +16.4 82 +23 +23 комфорт 1015.6 1011.3
00 14.09 В 3 н/о {ливн. осадки} 10/10 600 м
[Cb cap]
+20.2 +16.9 81 +23 +23 комфорт 1011.5 1007.2
03 14.09 СВ 1 н/о 9/9 600 м
[Cb cap]
+19.7 +17.2 85 +23 +23 комфорт 1011.0 1006.7 +19.2 0.0
06 14.09 СВ 4 20 км 8/4 600 м
[Sc Ci sp]
+23.6 +16.8 66 +27 +29 жарко 1010.1 1005.9 +19.2 0.0
09 14.09 В 5-10
{11}
20 км 10/8 600 м
[Sc Ci sp]
+27.1 +14.5 46 +30 +30 душно 1009.6 1005.4
12 14.09 В 6-12
{12}
20 км гроза без осадков {ливн. осадки} 10/10 600 м
[Cb cap]
+23.9 +14.9 57 +27 +27 жарко 1008.7 1004.5
15 14.09 С 2
{12}
10 км гроза, ливневой дождь 10/10 600 м
[Cb cap]
+18.2 +17.2 94 +19 +19 1010.2 1005.9 3
18 14.09 ЮВ 1 н/о слабый ливневой дождь {гроза} 10/10 600 м
[Cb cap]
+18.0 +17.3 96 +19 +19 1008.8 1004.5 +28.3 4
21 14.09 В 4 н/о слабый ливневой дождь, в посл. час гроза 10/10 600 м
[Cb cap]
+18.2 +18.0 99 +18 +18 1008.5 1004.2
00 15.09 СВ 2 н/о гроза без осадков {ливн. осадки} 10/10 600 м
[Cb cap]
+19.1 +18.9 99 +22 +22 комфорт 1008.0 1003.7
03 15.09 СВ 3 н/о гроза без осадков 10/10 600 м
[Cb cap]
+18.5 +18.0 97 +20 +20 1007.4 1003.1 +17.9 35
06 15.09 СВ 2 20 км в посл. час ливневой дождь {гроза} 10/10 600 м
[Cb cap]
+18.5 +17.5 94 +20 +20 1008.2 1003.9 +17.5 34
09 15.09 С 3 20 км 10/10 600 м
[Cb cap]
+20.1 +17.9 87 +24 +24 комфорт 1008.3 1004.0
12 15.09 С 4 4000 м гроза, ливневой дождь 10/10 600 м
[Cb cap]
+18.5 +18.2 98 +19 +19 1008.1 1003.8
15 15.09 С 4 20 км гроза без осадков {ливн. осадки} 10/10 600 м
[Cb cap]
+19.5 +18.4 93 +22 +22 комфорт 1009.0 1004.7 17
18 15.09 СЗ 3
{11}
н/о {гроза, ливн. осадки} 6/6 600 м
[Cb cap]
+18.5 +17.3 93 +19 +19 1010.6 1006.3 +24.1 20
21 15.09 СЗ 3 н/о дымка 10/10 600 м
[Cb cap]
+18.1 +17.1 94 +18 +18 1011.0 1006.7
00 16.09 СЗ 2 н/о ясно +17.0 +16.2 95 +17 +17 1011.7 1007.4
03 16.09 СЗ 2 н/о дымка 10/10 600 м
[Cb cap]
+15.9 +15.2 96 +16 +16 1012.9 1008.5 +15.4 4
06 16.09 СЗ 2 10 км 9/8 600 м
[Sc Ac trans]
+18.1 +15.6 85 +19 +19 1014.3 1010.0 +15.4
09 16.09 СЗ 2 10 км слабый ливневой дождь 10/8 600 м
[Cb cap Ac und]
+19.7 +15.8 78 +22 +23 комфорт 1015.7 1011.4
12 16.09 СЗ 3 20 км {ливн. осадки} 8/3 600 м
[Cu med, cong Ac trans Ci sp]
+24.6 +12.5 47 +26 +29 жарко 1015.7 1011.4
15 16.09 СЗ 3 20 км 6/1 600 м
[Cu med, cong Ac trans Ci fib]
+22.9 +15.0 61 +27 +27 душно 1016.4 1012.1 0.3
18 16.09 С 4 н/о 9/9 600 м
[Cb cap]
+19.9 +16.8 82 +23 +23 комфорт 1018.7 1014.4 +25.5 0.3
21 16.09 СЗ 1 н/о 3/3 600 м
[Sc]
+16.9 +15.2 90 +18 +18 1020.2 1015.8
00 17.09 С 1 н/о ясно +14.7 +13.6 93 +15 +15 1021.0 1016.6
03 17.09 СЗ 1 н/о ясно +12.8 +12.2 96 +13 +13 1022.1 1017.6 +12.6
06 17.09 СВ 3 20 км {туман} ясно +16.4 +11.2 71 +16 +19 1023.5 1019.1 +11.5
09 17.09 С 4 20 км 4/3 600 м
[Cu hum Ci sp]
+20.0 +7.6 45 +21 +26 комфорт 1023.8 1019.4
12 17.09 СВ 3 20 км 3/0
[Ci sp]
+20.6 +4.4 34 +22 +27 комфорт 1023.6 1019.2
15 17.09 С 3 20 км 3/0
[Ci sp]
+20.3 +1.0 28 +21 +21 комфорт 1023.2 1018.8
18 17.09 Ю 1 н/о ясно +13.0 +10.3 84 +13 +13 1024.2 1019.7 +21.9
21 17.09 штиль 0 н/о ясно +10.9 +9.3 90 +10 +10 1024.5 1020.0
00 18.09 штиль 0 н/о ясно +9.2 +8.1 93 +8 +8 1024.3 1019.8
03 18.09 штиль 0 н/о ясно +7.2 +6.3 94 +6 +6 1024.4 1019.8 +7.1
06 18.09 С 1 20 км ясно +14.7 +10.2 74 +15 +19 1025.4 1021.0 +7.0
09 18.09 С 2 20 км 1/0
[Ci sp]
+20.6 +5.2 36 +22 +32 комфорт 1025.1 1020.7
12 18.09 СВ 2 20 км 1/0
[Ci sp]
+22.6 +4.4 31 +23 +30 комфорт 1024.2 1019.9
15 18.09 СВ 2 20 км 1/0
[Ci sp]
+21.4 +2.9 30 +21 +22 комфорт 1023.4 1019.1
18 18.09 С 1 н/о ясно +14.8 +9.6 71 +15 +15 1024.2 1019.8 +23.2
21 18.09 Ю 1 н/о ясно +11.5 +10.2 92 +11 +11 1024.2 1019.7
00 19.09 ЮЗ 1 н/о ясно +10.3 +9.3 94 +10 +10 1024.5 1020.0
03 19.09 Ю 1 н/о ясно +9.0 +8.4 96 +8 +8 1024.5 1020.0 +9.0
06 19.09 СЗ 1 20 км ясно +16.3 +13.2 82 +17 +21 1024.9 1020.5 +9.0
09 19.09 СВ 2 20 км ясно +23.3 +8.9 40 +25 +35 комфорт 1025.6 1021.3
12 19.09 СВ 2 20 км ясно +25.6 +6.7 30 +25 +33 комфорт 1024.3 1020.0
15 19.09 В 2 20 км ясно +24.9 +6.6 31 +25 +25 комфорт 1024.3 1020.0
18 19.09 С 1 н/о ясно +19.2 +12.7 66 +21 +21 комфорт 1024.4 1020.0 +26.5
21 19.09 Ю 1 н/о ясно +14.2 +12.4 89 +15 +15 1024.5 1020.0
00 20.09 штиль 0 н/о ясно +13.3 +12.2 93 +13 +13 1023.2 1018.7

 

Местоположение метеостанции Клепинино (Крым, Россия): широта 45.53 долгота 34.18 высота над уровнем моря 37 м.

В архиве по умолчанию представлена погода в Клепинино за последнюю неделю. Архивные данные за месяц целиком и за предыдущие месяцы, начиная с января 2011 года, Вы можете получить, выбрав интересующий диапазон дат из раскрывающегося списка и нажав кнопку "Ввод!".


*Определитесь, кто Вы:
робот инопланетянин человек

Внимание! Время в таблицах - всемирное. Для получения местного времени необходимо прибавить поправку, которая в Клепинино равна 3 ч.

Смотрите также архив погоды в соседних городах и на ближайших метеорологических станциях:

Погода в Джанкое (Крым, Россия) (27 км)
Погода в Стрелковом (Херсонская область, Украина) (29 км)
Погода в Нижнегорском (Крым, Россия) (44 км)
Погода в Ишуни (Крым, Россия) (52 км)
Погода в Симферополе (Крым, Россия) (58 км)
Погода в Раздольном (Крым, Россия) (61 км)
Погода в Белогорске (Крым, Россия) (63 км)
Погода в Симферополе город (Крым, Россия) (65 км)
Погода в Евпатории (Крым, Россия) (74 км)
Погода в Почтовом (Крым, Россия) (80 км)

Пояснения к столбцам:

Ветер - указаны скорость ветра в м/с - средняя за 10 мин, порывы в срок и между сроками (в фигурных скобках) и направление, откуда дует ветер: С - северный, СВ - северо-восточный, В - восточный, ЮВ - юго-восточный, Ю - южный, ЮЗ - юго-западный, З - западный, СЗ - северо-западный.
Видимость - горизонтальная дальность видимости в метрах или километрах. При видимости от 1 до 10 км при отсутствии осадков обычно наблюдается дымка, при ухудшении видимости до 1 км и менее - туман. В сухую погоду видимость может ухудшаться дымом, пылью или мглою.
Явления - указаны атмосферные явления, наблюдавшиеся в срок или в последний час перед сроком; фигурными скобками обозначены явления, наблюдавшиеся между сроками (за 1-3 часа до срока); квадратными скобками обозначены град или гололедные отложения с указанием их диаметра в мм.
Облачность - указаны через наклонную черту общая и нижняя облачность в баллах и высота нижней границы облаков в метрах; квадратными скобками обозначены формы облаков: Ci - перистые, Cs - перисто-слоистые, Cc - перисто-кучевые, Ac - высококучевые, As - высокослоистые, Sc - слоисто-кучевые, Ns - слоисто-дождевые, Cu - кучевые, Cb - кучево-дождевые. Подробнее классификацию облаков см. в Атласе облаков (PDF).
T - Температура воздуха - температура, измеренная на высоте 2 м над землей.
Td - Температура точки росы - температура, при понижении до которой содержащийся в воздухе водяной пар достигнет насыщения.
f - Относительная влажность воздуха - влажноcть воздуха, измеренная на высоте 2 м над землей.
Te - Эффективная температура - температура, которую ощущает одетый по сезону человек в тени. Характеристика душности погоды. При расчете учитывается влияние влажности воздуха и скорости ветра на теплоощущения человека.
Tes - Эффективная температура на солнце - температура, которую ощущает человек, с поправкой на солнечный нагрев. Характеристика знойности погоды. Зависит от высоты солнца над горизонтом, облачности и скорости ветра. Ночью, в пасмурную погоду, а также при ветре 12 м/с и более поправка равна нулю.
P - Атмосферное давление - приведенное к уровню моря атмосферное давление.
Po - Атмосферное давление - измеренное на уровне метеостанции атмосферное давление.
Tmin - Минимальная температура - минимум температуры воздуха на высоте 2 м над землей.
Tmax - Максимальная температура - максимум температуры воздуха на высоте 2 м над землей.
R - Количество осадков - Количество выпавших осадков за период времени, мм. При наведении курсора мыши на число - период времени, за который выпало указанное количество осадков.
R24 - Количество осадков - Количество выпавших осадков за 24 часа, мм.
S - Снежный покров - Высота снежного покрова, см. При наведении курсора мыши на число - состояние снежного покрова и степень покрытия местности в баллах.